Weather History for Nagpur Sonegaon, India

Change the Weather History Date:

Thursday, July 18, 2013

  Actual Average Record
Temperature  
Mean Temperature 82 °F -  
Max Temperature 89 °F 88 °F - ()
Min Temperature 76 °F 74 °F - ()
Cooling Degree Days 18    
Growing Degree Days 32 (Base 50)    
Moisture  
Dew Point 76 °F    
Average Humidity 86    
Maximum Humidity 94    
Minimum Humidity 70    
Precipitation  
Precipitation 0.55 in 0.38 in - ()
Sea Level Pressure  
Sea Level Pressure 29.49 in    
Wind  
Wind Speed 7 mph ()    
Max Wind Speed 13 mph    
Max Gust Speed -    
Visibility 2.8 miles    
Events      
T = Trace of Precipitation, MM = Missing Value Source: Averaged Metar Reports

Daily Weather History Graph

Daily Weather History Graph

Search for Another Location

Airport:

Trip Planner

Search our weather history database for the weather conditions in past years. The results will help you decide how hot, cold, wet, or windy it might be!

Date:

Astronomy

Jul. 18, 2013 Rise Set
Actual Time 5:42 AM IST 6:57 PM IST
Civil Twilight 5:17 AM IST 7:22 PM IST
Nautical Twilight 4:48 AM IST 7:50 PM IST
Astronomical Twilight 4:19 AM IST 8:20 PM IST
Moon 2:28 PM IST (7/18) 1:01 AM IST (7/18)
Length of Visible Light 14h 04m
Length of Day
13h 15m
Waxing Gibbous, 73% of the Moon is Illuminated
Jul 18
Waxing Gibbous
Jul 22
Full
Jul 29
Last Quarter
Aug 7
New
Aug 14
First Quarter

Hourly Weather History & Observations

Time (IST) Temp. Heat Index Dew Point Humidity Pressure Visibility Wind Dir Wind Speed Gust Speed Precip Events Conditions
12:10 AM 78.8 °F - 77.0 °F 94% 29.53 in 1.9 mi West 5.8 mph - N/A   Haze
1:10 AM 78.8 °F - 77.0 °F 94% 29.50 in 1.9 mi West 4.6 mph - N/A   Haze
2:10 AM 78.8 °F - 77.0 °F 94% 29.50 in 1.9 mi West 3.5 mph - N/A   Haze
2:30 AM 78 °F - 76 °F 91% 29.47 in 1 mi West 5.8 mph - -   Haze
3:10 AM 78.8 °F - 75.2 °F 89% 29.50 in 1.9 mi West 5.8 mph - N/A   Haze
5:30 AM 77 °F - 75 °F 92% 29.47 in 1 mi West 4.6 mph - -   Haze
5:40 AM 77.0 °F - 75.2 °F 94% 29.50 in 1.9 mi West 4.6 mph - N/A   Haze
6:40 AM 77.0 °F - 75.2 °F 94% 29.53 in 2.5 mi West 5.8 mph - N/A   Haze
7:40 AM 77.0 °F - 75.2 °F 94% 29.53 in 3.1 mi West 4.6 mph - N/A   Haze
8:30 AM 81 °F - 76 °F 82% 29.48 in 2 mi WNW 9.2 mph - -   Partly Cloudy
8:40 AM 80.6 °F 87.1 °F 77.0 °F 89% 29.53 in 3.7 mi WNW 9.2 mph - N/A   Mostly Cloudy
9:10 AM 82.4 °F 90.9 °F 77.0 °F 84% 29.53 in 3.7 mi WNW 10.4 mph - N/A   Mostly Cloudy
9:40 AM 82.4 °F 90.9 °F 77.0 °F 84% 29.53 in 3.7 mi WNW 10.4 mph - N/A   Mostly Cloudy
10:10 AM 82.4 °F 90.9 °F 77.0 °F 84% 29.53 in 3.7 mi WNW 9.2 mph - N/A   Mostly Cloudy
11:30 AM 84 °F - 78 °F 78% 29.48 in 2 mi WNW 9.2 mph - -   Mostly Cloudy
11:40 AM 84.2 °F 96.1 °F 78.8 °F 84% 29.56 in 3.7 mi NW 10.4 mph - N/A   Mostly Cloudy
12:10 PM 86.0 °F 99.3 °F 78.8 °F 79% 29.53 in 3.7 mi NW 12.7 mph - N/A   Mostly Cloudy
12:40 PM 86.0 °F 96.9 °F 77.0 °F 74% 29.50 in 3.7 mi NW 11.5 mph - N/A   Mostly Cloudy
1:10 PM 87.8 °F 99.7 °F 77.0 °F 70% 29.50 in 3.7 mi NW 11.5 mph - N/A   Mostly Cloudy
1:40 PM 87.8 °F 99.7 °F 77.0 °F 70% 29.47 in 3.7 mi NW 12.7 mph - N/A   Scattered Clouds
2:10 PM 87.8 °F 99.7 °F 77.0 °F 70% 29.47 in 3.7 mi WNW 12.7 mph - N/A   Scattered Clouds
2:30 PM 84 °F - 78 °F 76% 29.42 in 2 mi WNW 10.4 mph - -   Partly Cloudy
3:10 PM 86.0 °F 96.9 °F 77.0 °F 74% 29.44 in - WNW 11.5 mph - N/A   Scattered Clouds
4:40 PM 82.4 °F 89.5 °F 75.2 °F 79% 29.44 in 3.1 mi West 8.1 mph - N/A   Haze
5:10 PM 80.6 °F 86.2 °F 75.2 °F 84% 29.44 in 3.1 mi WNW 9.2 mph - N/A   Haze
5:30 PM 82 °F - 76 °F 77% 29.40 in 2 mi WNW 9.2 mph - -   Haze
5:40 PM 80.6 °F 86.2 °F 75.2 °F 84% 29.44 in 3.1 mi WNW 9.2 mph - N/A   Haze
6:10 PM 80.6 °F 87.1 °F 77.0 °F 89% 29.44 in 3.1 mi West 8.1 mph - N/A   Haze
6:40 PM 78.8 °F - 77.0 °F 94% 29.47 in 3.1 mi WNW 5.8 mph - N/A   Haze
7:10 PM 78.8 °F - 77.0 °F 94% 29.47 in 3.1 mi WNW 3.5 mph - N/A   Haze
7:40 PM 78.8 °F - 77.0 °F 94% 29.47 in 3.1 mi WNW 8.1 mph - N/A   Haze
8:10 PM 77.0 °F - 75.2 °F 94% 29.47 in 3.1 mi West 6.9 mph - N/A   Haze
8:30 PM 81 °F - 76 °F 80% 29.44 in 2 mi WNW 6.9 mph - -   Haze
8:40 PM 77.0 °F - 75.2 °F 94% 29.50 in 3.1 mi WNW 6.9 mph - N/A   Haze
9:10 PM 77.0 °F - 75.2 °F 94% 29.50 in 3.1 mi West 3.5 mph - N/A   Haze
9:40 PM 77.0 °F - 75.2 °F 94% 29.50 in 3.1 mi West 4.6 mph - N/A   Haze